Miscellaneous Local Product
Issued by NWS North Platte, NE

Home | Current Version | Previous Version | Graphics & Text | Print | Product List | Glossary On
Versions: 1 2 3 4 5 6 7 8 9 10 11 12 13 14 15 16 17 18 19 20 21 22 23 24 25 26 27 28 29 30 31 32 33 34 35 36 37 38 39 40 41 42 43 44 45 46 47 48 49 50
919
AXUS43 KLBF 190510
MISLBF


WESTERN AND NORTH CENTRAL NEBRASKA HOURLY WEATHER ROUNDUP
NATIONAL WEATHER SERVICE NORTH PLATTE NE
1200 AM CDT THU OCT 19 2017

NOTE: "FAIR" INDICATES FEW OR NO CLOUDS BELOW 12,000 FEET WITH NO
SIGNIFICANT WEATHER AND/OR OBSTRUCTIONS TO VISIBILITY.

NOTE: STATIONS NOT REPORTING VARIABLES SUCH AS SKY/WEATHER OR
PRESSURE ARE PROVIDED BY RAWS AND APRS NETWORKS AND ARE NOT UNDER
NATIONAL WEATHER SERVICE QUALITY CONTROL.

...OBSERVATIONS IN AND NEAR THE EASTERN PANHANDLE OF NEBRASKA...

CITY           SKY/WX    TMP DP  RH WIND       PRES   REMARKS
PINE RIDGE     CLOUDY    58  30  34 S20G28    30.01F
GORDON         FAIR      49  32  51 S3        30.05F
CHADRON        CLOUDY    60  28  29 S32G39    29.99F
ALLIANCE       CLOUDY    40  32  73 SE7       30.08S
SIDNEY         CLOUDY    41  30  65 S8        30.12S
CRESCENT LAKE    N/A     47  35  64 SE6         N/A
$$

...OBSERVATIONS IN NORTHERN NEBRASKA AND FAR SOUTHERN SOUTH DAKOTA...

CITY           SKY/WX    TMP DP  RH WIND       PRES   REMARKS
WINNER         FAIR      50  33  52 SE12      30.01F
VALENTINE      CLEAR     47  34  60 S7        30.06S
THEDFORD       CLOUDY    44  34  67 CALM      30.10S
AINSWORTH      CLOUDY    39  35  84 S8        30.07F WCI  33
O`NEILL        CLOUDY    45  38  77 S7        30.07F
ORD            CLEAR     39  34  82 SW3       30.08S
BROKEN BOW     CLOUDY    37  33  85 CALM      30.10R
VALENTINE NWR    N/A     43  34  70 S6          N/A
HALSEY           N/A     52  32  47 SE5         N/A
BUTTE            N/A     49  34  57 S5          N/A
CHAMBERS         N/A     42  35  77 CALM        N/A
EWING            N/A     45  34  66 CALM        N/A
$$

...OBSERVATIONS IN SOUTHWEST NEBRASKA AND FAR NORTHEAST COLORADO...

CITY           SKY/WX    TMP DP  RH WIND       PRES   REMARKS
WRAY           FAIR      50  32  50 SE6       30.11F
HOLYOKE        FAIR      46  32  57 S6        30.11S
IMPERIAL       CLOUDY    46  33  60 SE5       30.10S
OGALLALA       CLOUDY    46  34  63 CALM      30.10S
NORTH PLATTE   CLOUDY    41  35  79 E3        30.10S
MCCOOK         CLEAR     47  35  63 E5        30.09F
LEXINGTON      CLEAR     41  37  84 CALM      30.10F
STAPLETON        N/A     45  35  69 CALM        N/A
GOTHENBURG       N/A     46  37  70 CALM        N/A
CALLAWAY         N/A     37  35  91 SE3         N/A
$$

...OBSERVATIONS IN CENTRAL LINCOLN COUNTY AREA...

CITY           SKY/WX    TMP DP  RH WIND       PRES   REMARKS
N.P. AIRPORT   CLOUDY    41  35  79 E3        30.10S
N.P. DOWNTOWN    N/A     46  38  74 CALM        N/A
N.P. SOUTHEAST   N/A     44  36  74 CALM        N/A
N.P. HILLCREST   N/A     51  37  58 E7          N/A
$$

...SOME OBSERVATIONS FROM AROUND THE REGION...

CITY           SKY/WX    TMP DP  RH WIND       PRES   REMARKS
DENVER         CLEAR     55  22  27 SW14      30.14F
LIMON          CLOUDY    33  26  75 N3        30.19S
ASPEN          CLOUDY    40  14  34 SW10      30.29F WCI  33
LARAMIE        CLOUDY    35  16  45 S12       30.21S WCI  27
CASPER         CLOUDY    52  15  23 SW13      30.05S
CHEYENNE       CLOUDY    44  20  38 SW6       30.18S
SCOTTSBLUFF    CLOUDY    47  31  53 E10       30.09R
GRAND ISLAND   CLEAR     47  40  76 NW3       30.09R
OMAHA          CLEAR     49  45  86 N7        30.04S
SIOUX FALLS    CLOUDY    42  37  82 NE3       30.06S
PIERRE         CLOUDY    44  32  62 S9        29.98F
RAPID CITY     CLOUDY    47  29  49 SE7       29.96F
BISMARCK       CLOUDY    40  26  57 CALM      29.94S
KANSAS CITY    CLEAR     57  51  80 SW9       30.05R
HILL CITY      CLEAR     49  38  65 CALM      30.09S
WICHITA        CLOUDY    58  50  75 S9        30.05R
DODGE CITY     CLEAR     52  45  77 CALM      30.08R
OKLAHOMA CITY  MOCLDY    57  46  66 S9        30.08S
DALLAS         MOCLDY    67  46  47 S10       30.09S
AMARILLO       CLOUDY    55  47  74 SE12      30.09R
$$




USA.gov is the U.S. government's official web portal to all federal, state and local government web resources and services.